Location: Morosaglia
(42.4360°N, 9.3069°E)
Time: 22:47:08
(UTC+00:00)

STARLINK-34 - Pass Details

Date: 07 June 2020
Orbit: 314 x 317 km, 53.0° (Epoch: 14 July)

Event Time Altitude Azimuth Distance (km) Brightness Sun altitude
Exits shadow 00:44:24 28° 28° (NNE) 629 4.6 -22.0°
Drops below altitude 10° 00:45:58 10° 45° (NE) 1,219 6.3 -21.9°
Sets 00:47:57 0° 51° (NE) 2,051 7.6 -21.8°
